Temperature
17 16 16 17 17 16 16 16 16 16 17 17 17 17 17 17 17 17 17 17 18 18 18 18 18 18 17 17 17 17 17 17 17 17 17 17 17 17 17 17 17 17 17
16 16 16 16 16 16 16 16 16 16 16 16 16 16 16 16 16 17 17 17 17 18 18 18 18 18 17 17 17 17 17 17 17 17 17 17 17 17 17 17 17 17 17
15 15 15 15 15 15 15 15 15 15 16 16 16 16 16 16 16 16 16 17 17 17 17 18 18 18 18 17 17 17 17 17 17 17 17 17 17 17 17 17 17 17 17
15 14 14 15 14 14 14 14 15 15 15 15 15 15 16 16 16 16 16 16 16 17 17 17 18 18 18 18 17 17 17 17 17 17 17 17 17 17 17 17 17 17 17
14 14 14 14 14 14 14 14 14 14 14 14 15 15 15 15 15 16 16 16 16 16 16 17 17 17 17 18 17 17 17 17 17 17 17 17 17 17 17 17 17 17 17
13 13 13 13 13 13 13 13 13 13 14 14 14 15 15 15 16 16 16 16 16 16 16 16 16 16 17 17 17 17 17 17 17 17 17 17 17 17 17 17 17 17 17
12 12 12 12 12 13 13 13 13 13 13 14 14 15 16 16 16 16 16 16 16 16 16 16 16 16 16 17 17 17 17 17 17 17 17 17 17 17 17 17 17 17 17
12 12 12 12 12 12 12 12 12 13 13 13 14 14 16 17 16 16 15 15 15 15 15 15 15 16 16 16 16 17 17 17 17 17 17 17 17 17 17 17 17 17 17
12 11 11 11 11 12 12 12 12 12 13 13 13 14 15 16 16 16 15 15 15 15 15 15 15 15 15 15 16 16 17 17 17 17 17 17 17 17 17 17 17 17 17
11 11 11 11 11 11 11 11 12 12 12 13 13 13 13 13 14 15 15 15 14 14 14 15 15 15 15 15 15 16 16 17 17 17 17 17 17 17 17 17 16 16 16
11 11 10 10 10 11 11 11 11 11 11 12 12 13 13 13 13 13 15 15 15 14 14 14 14 15 15 15 15 15 16 16 16 17 17 17 17 16 16 16 16 16 16
11 11 10 10 10 10 10 10 10 11 11 11 11 12 12 13 13 13 14 14 14 14 14 14 14 14 15 15 15 15 15 15 16 16 16 16 16 16 16 16 16 16 16
12 11 10 10 10 10 9 10 10 10 10 10 10 11 12 12 12 12 13 13 14 14 14 14 14 14 14 14 14 14 15 15 15 16 16 16 16 16 16 16 16 16 16
11 10 10 10 9 9 9 9 10 10 10 10 10 10 11 11 12 12 12 12 13 14 14 14 14 14 14 14 14 14 14 15 15 15 16 16 16 16 16 16 16 16 16
11 10 10 9 9 9 9 9 9 9 9 9 10 10 10 11 11 11 11 12 12 13 14 14 13 13 13 13 14 14 14 14 15 15 15 16 16 16 16 16 16 16 16
10 10 9 9 9 9 9 9 9 9 9 9 9 9 9 10 10 11 11 11 11 12 13 13 13 13 13 13 13 14 14 14 14 15 15 15 16 16 16 16 16 16 16
10 10 9 9 9 9 9 9 9 9 9 9 9 9 9 9 9 10 10 11 11 11 12 12 13 12 12 13 13 13 14 14 14 14 15 15 15 16 16 16 16 16 16
10 9 9 9 9 9 9 9 9 9 9 9 9 9 9 9 9 9 10 10 11 11 11 11 12 12 12 12 13 13 13 14 14 14 15 15 15 15 16 16 16 16 16
9 9 9 9 9 9 9 9 8 8 8 8 8 8 8 8 8 9 9 9 10 10 11 11 12 12 12 12 12 13 13 14 14 14 14 15 15 15 15 16 16 16 16
9 9 9 9 9 9 9 9 8 8 8 8 8 8 8 8 8 8 9 9 9 10 10 11 11 12 12 12 12 12 13 13 13 14 14 14 15 15 15 15 15 15 15
9 9 9 9 9 9 9 9 8 8 8 8 8 8 8 8 8 8 8 9 9 9 10 11 11 12 12 12 12 12 12 12 13 13 14 14 14 14 15 15 15 15 15
9 9 9 9 9 9 9 9 9 8 8 8 8 8 8 8 8 8 8 8 8 8 9 10 11 11 11 12 12 12 12 12 12 13 13 14 14 14 14 14 15 15 15
9 9 9 9 9 9 9 9 9 8 8 8 8 8 8 9 8 8 8 8 8 8 8 8 9 10 11 11 11 11 12 12 12 13 13 13 13 13 14 14 14 15 15
9 9 9 9 9 9 9 9 8 8 8 8 8 8 8 8 8 8 7 8 8 8 8 8 8 9 9 10 10 10 11 11 12 12 12 12 13 13 13 13 14 14 15
9 9 9 9 8 9 9 8 8 8 8 8 8 8 8 7 7 7 7 7 7 8 8 8 8 8 9 9 10 10 11 11 11 11 12 12 12 12 12 13 13 13 14
9 9 9 9 8 9 9 8 8 8 8 8 8 8 7 7 7 7 6 6 7 7 8 8 8 8 8 9 9 10 10 11 11 11 11 12 12 12 12 12 12 12 13
Wind_Speed
3 4 4 4 6 6 6 6 7 7 8 10 11 12 13 14 15 15 12 16 19 20 20 20 20 21 23 24 24 23 22 22 21 20 19 19 19 19 18 17 17 16 15
3 4 3 3 4 5 5 6 6 6 7 7 9 11 12 14 15 15 16 15 19 21 21 21 21 21 23 24 25 26 25 24 24 23 22 21 21 20 20 19 18 18 17
5 5 4 4 4 5 4 6 6 6 7 8 9 10 10 12 14 15 16 16 16 21 23 23 23 23 23 24 26 27 27 27 26 25 24 23 23 22 22 21 20 19 19
5 6 5 5 5 6 5 5 6 6 6 7 7 8 9 9 12 14 15 16 16 16 20 26 25 24 25 25 26 27 28 28 28 28 27 26 25 24 24 23 22 22 21
6 7 6 5 6 6 6 6 5 6 7 7 8 8 8 9 10 12 14 16 17 17 17 20 26 26 26 27 27 28 29 30 30 29 29 28 27 26 26 25 24 24 23
6 7 6 5 7 6 6 5 6 6 7 7 9 9 9 10 10 11 12 13 14 17 19 18 19 23 28 28 28 28 29 31 31 31 30 30 29 28 28 27 26 25 25
6 6 7 5 6 7 7 8 7 8 7 6 8 9 9 11 10 9 9 10 11 13 15 17 17 17 19 28 29 28 29 31 32 31 31 31 31 30 29 29 28 27 26
6 7 6 8 7 7 7 7 7 8 8 6 7 8 8 7 6 7 7 8 8 8 10 14 16 17 18 18 23 30 30 30 31 32 32 32 32 31 30 30 30 29 28
6 7 7 8 7 9 7 7 8 9 8 7 6 6 7 6 7 5 5 5 5 6 8 9 12 15 18 19 19 25 30 31 32 32 32 32 32 32 31 31 31 31 30
6 7 7 7 7 8 7 8 7 7 8 9 6 6 7 8 7 7 7 5 5 6 7 8 9 11 15 17 19 19 25 29 31 33 33 32 32 32 32 31 32 32 31
6 6 6 7 7 7 7 8 8 8 8 9 9 8 8 7 9 10 10 8 7 6 6 7 8 8 12 15 16 20 22 26 28 30 32 32 32 32 32 32 33 32 32
5 5 6 6 7 7 7 8 8 9 8 9 9 9 9 9 9 9 10 10 10 8 7 7 7 6 8 11 16 18 21 24 27 28 30 32 32 32 33 33 34 33 32
6 5 6 6 7 7 8 8 8 9 9 9 9 10 9 9 9 9 10 11 11 10 8 6 5 4 5 6 9 13 17 21 25 27 28 30 32 33 34 34 34 34 33
8 7 8 8 8 8 9 8 9 9 8 9 11 11 10 11 10 10 10 10 11 10 9 7 3 2 3 5 6 9 12 16 21 24 26 29 31 32 33 33 33 34 33
8 8 9 9 9 9 9 9 9 9 9 10 11 11 11 10 10 10 10 10 11 11 10 7 4 2 3 5 5 7 9 12 16 21 25 27 29 31 32 33 33 33 32
10 10 10 10 10 10 10 10 11 10 10 10 10 11 11 11 10 10 11 11 11 11 12 9 6 5 5 6 6 7 8 9 12 17 22 25 26 28 29 31 33 33 33
10 10 11 11 11 11 10 10 11 11 11 12 11 12 12 12 11 11 11 11 11 11 12 11 8 6 6 7 6 6 7 7 9 13 17 21 23 25 27 29 31 32 32
11 11 11 12 12 12 11 11 12 12 12 13 13 12 13 11 12 12 11 12 12 11 13 13 10 8 7 7 7 6 5 5 6 9 13 17 19 22 24 26 28 30 31
11 12 12 12 12 12 12 11 12 12 13 13 13 13 13 13 13 12 12 12 12 12 12 13 12 9 8 7 6 6 6 4 3 6 10 13 15 17 20 23 25 27 28
11 12 12 12 12 12 12 12 12 12 12 13 13 13 14 14 14 13 12 13 13 13 13 13 12 11 9 7 6 6 5 4 3 4 4 6 9 13 16 18 21 23 25
11 11 12 12 12 12 11 11 11 12 12 13 13 13 14 13 13 12 12 12 12 12 12 12 12 11 10 8 7 6 6 4 4 4 4 4 6 7 9 14 17 20 22
11 11 12 12 12 11 5 4 10 13 14 14 14 14 13 14 15 16 18 18 16 15 14 13 12 12 11 10 8 7 6 5 4 4 5 4 4 5 5 8 13 18 20
11 11 11 12 13 12 8 8 10 12 15 15 15 14 13 12 11 14 16 20 20 21 20 17 16 14 12 11 9 10 8 7 5 4 4 3 3 3 1 3 12 16 19
11 11 11 12 12 12 8 9 9 13 15 15 15 15 14 14 13 12 14 15 16 17 18 18 17 17 15 12 10 10 8 7 5 4 4 3 3 2 2 3 7 12 16
11 11 12 12 12 12 9 9 10 11 13 15 14 14 14 14 10 8 13 15 16 15 15 15 15 14 11 8 7 9 9 7 6 4 3 3 3 3 2 2 4 9 13
11 12 12 12 12 13 8 8 9 10 12 12 12 12 12 13 9 6 12 15 16 16 15 14 16 16 17 16 13 13 12 10 7 5 5 4 4 4 3 2 2 5 8
Wind_Direction
318 310 296 297 294 293 279 275 273 272 265 255 252 246 243 240 241 241 232 204 208 214 219 222 223 222 218 214 213 211 209 207 205 203 201 199 196 193 190 189 188 186 183
333 317 295 304 299 293 302 296 289 281 272 267 259 255 252 246 241 242 244 225 212 216 220 223 224 224 223 219 216 213 212 210 208 205 204 203 200 197 195 194 193 192 190
341 317 308 289 299 297 294 287 290 281 271 268 263 261 256 253 248 242 242 241 229 217 218 223 224 224 224 222 219 216 214 212 210 207 206 205 203 200 199 198 197 196 196
332 311 303 298 309 291 285 285 276 286 283 280 275 269 261 252 250 247 243 240 241 237 221 219 222 224 224 224 223 219 215 213 212 210 208 207 205 203 201 200 200 199 199
327 307 303 312 293 286 285 288 296 295 290 287 280 267 264 258 254 250 246 243 240 239 238 221 217 222 225 225 224 222 218 215 214 211 210 209 208 206 204 203 203 202 201
330 318 298 305 298 290 288 290 295 283 287 287 289 285 272 262 254 251 249 246 242 239 238 236 225 222 222 224 224 223 220 216 214 213 211 210 210 209 207 205 205 204 204
329 314 307 309 293 294 299 293 290 283 278 292 290 286 275 256 248 248 247 251 246 241 241 236 233 232 222 218 221 223 221 218 215 214 213 212 210 210 209 208 207 206 206
318 308 315 300 298 299 283 283 281 289 289 287 296 300 292 270 233 251 248 244 251 250 246 241 235 232 234 226 218 217 221 219 215 215 215 213 211 210 209 209 209 207 206
310 311 306 302 305 292 291 295 285 275 285 286 282 295 300 304 316 264 262 262 266 265 261 259 247 239 232 231 229 213 215 217 216 215 214 213 212 211 210 211 211 209 208
301 300 300 299 297 295 297 283 280 283 275 278 271 265 278 299 293 293 278 269 276 277 276 267 260 247 238 233 230 227 216 215 216 216 214 212 212 212 211 212 213 212 210
293 294 297 296 292 289 299 300 295 281 277 276 282 279 274 267 261 274 286 295 289 283 284 277 267 256 244 235 232 228 221 217 217 216 215 212 212 213 214 214 215 215 213
297 300 297 294 287 292 293 287 287 275 276 282 280 278 276 275 275 277 282 285 289 290 292 283 272 266 256 243 235 229 222 219 217 216 215 212 212 214 215 216 217 216 216
303 313 307 295 292 291 285 284 278 282 278 274 270 272 273 272 277 279 282 287 291 289 282 273 270 277 278 265 250 238 227 222 219 216 214 212 211 213 214 215 216 217 216
304 313 296 288 286 285 283 281 279 273 271 272 270 271 274 270 272 271 274 282 286 286 278 272 281 297 327 315 291 264 240 228 222 218 217 214 213 212 212 213 216 216 216
294 294 291 287 284 282 280 279 275 278 276 271 270 263 260 268 266 267 268 268 275 282 282 281 265 279 316 311 310 281 253 236 227 223 220 217 215 213 212 213 213 214 213
291 289 287 286 283 280 276 272 274 268 269 269 270 275 273 271 272 268 266 265 263 268 277 282 279 283 303 301 295 288 268 239 232 227 222 219 217 215 213 211 210 211 211
291 286 285 285 283 280 277 272 272 276 270 269 269 265 262 268 271 272 267 263 261 261 267 273 273 274 280 288 287 282 274 246 228 226 224 220 216 215 214 212 210 209 208
287 288 286 284 282 280 277 273 272 273 271 269 267 267 265 263 260 263 267 266 264 263 265 271 274 272 267 276 274 272 269 258 231 220 221 219 215 213 212 210 209 207 205
288 289 287 284 283 281 278 274 273 273 271 269 268 265 263 262 262 262 263 265 265 260 256 262 265 264 265 264 269 263 256 248 237 208 207 209 209 208 208 206 205 203 202
289 289 288 286 284 282 278 274 273 273 272 270 267 263 262 259 259 260 261 259 262 265 261 259 261 259 254 252 255 257 249 233 220 199 185 186 192 199 201 199 199 199 199
289 289 288 286 283 280 274 277 281 278 277 274 269 264 260 258 265 267 268 267 263 259 260 255 255 255 250 246 248 247 247 235 223 205 180 176 176 188 194 195 195 194 195
289 288 286 285 284 281 300 291 278 282 280 276 273 269 265 252 243 239 249 260 267 266 265 265 259 256 256 251 248 250 246 233 226 199 185 176 175 177 183 190 188 188 191
290 288 286 285 284 283 269 251 254 272 275 275 274 271 269 266 250 250 239 234 243 247 252 261 267 266 264 253 251 247 240 241 237 189 175 173 167 159 140 143 165 177 181
291 289 288 287 286 284 259 244 251 264 269 271 271 269 268 270 266 263 263 256 250 242 236 238 248 258 262 271 261 253 258 248 240 204 184 170 160 143 109 97 143 165 172
290 290 288 288 287 285 260 236 248 275 271 272 272 271 270 270 266 245 258 262 261 257 246 238 246 256 278 287 283 262 244 233 228 203 191 162 142 126 113 102 105 146 159
287 289 290 290 287 285 270 226 235 272 276 278 276 271 258 252 270 243 256 257 256 255 255 243 230 237 245 243 235 244 246 235 226 204 179 160 148 143 134 107 111 130 138
Height
1554 1554 1553 1552 1553 1552 1552 1552 1552 1552 1551 1552 1552 1553 1553 1554 1555 1557 1558 1558 1559 1562 1564 1567 1569 1571 1574 1576 1578 1580 1582 1585 1587 1589 1591 1593 1596 1598 1600 1601 1603 1605 1607
1552 1551 1551 1549 1549 1549 1549 1548 1548 1548 1548 1548 1548 1548 1548 1549 1549 1550 1552 1553 1553 1556 1558 1561 1564 1566 1569 1572 1575 1577 1579 1582 1584 1586 1589 1591 1593 1596 1598 1600 1602 1604 1606
1549 1549 1548 1548 1547 1547 1545 1545 1545 1545 1544 1544 1543 1543 1543 1543 1544 1544 1546 1547 1549 1550 1551 1554 1557 1560 1563 1566 1570 1572 1575 1578 1580 1583 1586 1588 1591 1593 1596 1598 1600 1602 1604
1547 1546 1546 1546 1545 1544 1544 1543 1543 1542 1541 1540 1539 1539 1539 1538 1538 1539 1540 1541 1543 1545 1546 1547 1550 1553 1557 1560 1563 1567 1570 1573 1576 1579 1582 1585 1587 1590 1593 1595 1598 1600 1602
1545 1544 1544 1543 1542 1542 1542 1541 1541 1539 1538 1537 1536 1535 1534 1533 1533 1534 1534 1535 1536 1537 1539 1540 1542 1545 1549 1553 1556 1560 1564 1567 1571 1574 1577 1580 1583 1586 1589 1592 1595 1597 1600
1543 1542 1542 1540 1540 1539 1539 1538 1537 1536 1535 1533 1533 1531 1529 1529 1528 1528 1528 1529 1530 1530 1532 1534 1536 1537 1540 1544 1548 1553 1557 1561 1564 1568 1572 1575 1578 1582 1585 1588 1591 1594 1597
1541 1539 1539 1538 1537 1537 1535 1535 1534 1533 1532 1531 1530 1528 1526 1524 1524 1523 1523 1524 1524 1524 1525 1526 1528 1530 1533 1536 1540 1544 1549 1553 1557 1562 1565 1569 1573 1576 1580 1583 1587 1590 1593
1538 1538 1536 1535 1535 1533 1532 1531 1530 1530 1530 1529 1528 1525 1523 1522 1520 1520 1519 1519 1519 1519 1519 1520 1521 1522 1525 1528 1531 1535 1540 1545 1550 1554 1558 1563 1567 1571 1574 1578 1582 1585 1588
1536 1534 1533 1532 1531 1530 1530 1528 1527 1527 1527 1526 1525 1525 1522 1519 1518 1518 1516 1516 1514 1514 1514 1514 1514 1515 1517 1520 1523 1527 1531 1537 1541 1546 1551 1555 1560 1564 1568 1572 1576 1580 1583
1534 1532 1530 1529 1527 1527 1526 1525 1525 1524 1523 1523 1523 1522 1522 1520 1519 1515 1515 1513 1512 1510 1510 1509 1509 1509 1510 1512 1515 1519 1523 1528 1533 1538 1543 1547 1552 1557 1561 1565 1570 1574 1577
1531 1529 1527 1526 1524 1524 1523 1521 1520 1520 1520 1520 1520 1519 1518 1517 1516 1515 1512 1511 1509 1508 1506 1504 1504 1503 1504 1505 1507 1511 1515 1520 1525 1530 1534 1539 1544 1549 1553 1558 1563 1567 1571
1529 1528 1525 1523 1521 1521 1519 1518 1517 1517 1516 1515 1515 1515 1515 1514 1513 1511 1509 1507 1506 1504 1502 1501 1499 1498 1498 1499 1501 1503 1507 1511 1516 1521 1526 1531 1536 1541 1546 1550 1555 1560 1564
1527 1525 1523 1520 1518 1517 1515 1514 1513 1513 1512 1511 1510 1511 1511 1510 1509 1508 1507 1504 1502 1501 1499 1497 1496 1494 1494 1494 1495 1497 1499 1503 1508 1513 1518 1523 1528 1533 1538 1542 1547 1552 1557
1524 1521 1518 1516 1515 1513 1512 1511 1510 1509 1508 1507 1506 1506 1506 1506 1505 1504 1504 1502 1499 1497 1495 1494 1492 1491 1490 1489 1490 1491 1493 1496 1500 1505 1510 1515 1520 1525 1530 1534 1539 1545 1550
1520 1518 1515 1513 1511 1509 1508 1506 1506 1504 1504 1502 1502 1502 1501 1501 1500 1500 1499 1499 1498 1495 1492 1491 1490 1488 1487 1486 1485 1486 1487 1490 1493 1497 1502 1507 1512 1517 1522 1527 1531 1536 1542
1515 1513 1511 1509 1507 1505 1504 1502 1501 1500 1499 1498 1497 1496 1495 1496 1495 1495 1494 1494 1493 1492 1489 1488 1487 1486 1484 1483 1482 1482 1483 1484 1487 1491 1495 1500 1504 1509 1514 1519 1523 1529 1534
1511 1509 1507 1505 1503 1501 1499 1498 1497 1496 1494 1493 1492 1492 1490 1490 1490 1490 1489 1489 1488 1488 1486 1484 1484 1482 1481 1480 1479 1479 1479 1480 1482 1485 1489 1492 1496 1501 1506 1511 1516 1521 1526
1507 1505 1502 1500 1498 1497 1495 1493 1492 1491 1490 1488 1487 1487 1486 1485 1484 1484 1483 1483 1483 1482 1482 1480 1479 1479 1477 1476 1475 1475 1475 1476 1477 1479 1482 1486 1490 1494 1498 1503 1509 1514 1519
1502 1500 1498 1495 1493 1492 1490 1488 1487 1485 1484 1483 1482 1481 1480 1480 1479 1479 1478 1478 1477 1477 1477 1476 1475 1474 1474 1473 1472 1471 1471 1472 1473 1474 1477 1480 1484 1487 1492 1496 1501 1507 1512
1497 1495 1493 1490 1488 1486 1485 1483 1482 1480 1479 1477 1476 1475 1474 1474 1473 1473 1472 1472 1472 1472 1471 1471 1470 1470 1469 1469 1468 1468 1467 1468 1469 1470 1472 1475 1478 1481 1485 1490 1495 1500 1506
1493 1490 1488 1485 1483 1481 1480 1479 1477 1476 1474 1472 1470 1469 1468 1467 1467 1466 1467 1467 1467 1466 1466 1466 1465 1465 1465 1465 1465 1464 1464 1464 1465 1466 1468 1470 1473 1476 1479 1484 1489 1494 1499
1488 1485 1483 1480 1478 1477 1476 1473 1471 1469 1468 1466 1464 1463 1462 1461 1459 1459 1459 1459 1460 1460 1461 1461 1460 1460 1460 1461 1461 1461 1461 1461 1461 1463 1465 1467 1469 1472 1475 1478 1483 1488 1494
1483 1481 1478 1475 1473 1471 1469 1467 1465 1463 1461 1460 1458 1457 1456 1456 1454 1453 1452 1451 1452 1452 1453 1454 1455 1455 1456 1457 1457 1457 1457 1457 1458 1459 1461 1463 1465 1468 1471 1474 1478 1483 1488
1479 1476 1473 1470 1468 1466 1463 1461 1459 1457 1455 1454 1452 1450 1449 1448 1448 1447 1446 1446 1446 1446 1446 1446 1447 1448 1451 1452 1452 1453 1453 1454 1454 1456 1458 1459 1462 1464 1468 1470 1474 1479 1484
1474 1471 1468 1466 1462 1460 1458 1455 1453 1451 1450 1448 1446 1444 1442 1441 1441 1439 1439 1439 1439 1439 1440 1440 1441 1442 1443 1445 1447 1449 1450 1451 1450 1451 1454 1456 1458 1462 1465 1467 1471 1476 1480
1469 1466 1463 1461 1457 1455 1452 1450 1448 1446 1444 1442 1440 1438 1436 1434 1434 1432 1432 1432 1431 1432 1433 1434 1434 1434 1436 1438 1440 1442 1445 1446 1447 1448 1449 1453 1455 1459 1463 1465 1469 1473 1477